• In Deutschland
  • Länderverzeichnis
  • Für 7 Tage
  • Wassertemperatur
  • Satellitenkarten
  • Wetterkarte
  • Widgets
  • user-avatar
    Anmelden

    Stündliche Wetter Uige

    Heute, 27 Juni, Dienstag

    Zeit Temperatur Niederschläge Wind Luftdruck Luftfeuchtigkeit
    00:00 +20°C° 0 mm 1 m/S 692 mmHg 78%
    01:00 +19°C° 0 mm 2 m/S 692 mmHg 86%
    02:00 +18°C° 0 mm 2 m/S 692 mmHg 86%
    03:00 +19°C° 0 mm 1 m/S 691 mmHg 87%
    04:00 +19°C° 0 mm 1 m/S 691 mmHg 88%
    05:00 +19°C° 0 mm 1 m/S 692 mmHg 85%
    06:00 +19°C° 0 mm 1 m/S 692 mmHg 82%
    07:00 +19°C° 0 mm 1 m/S 692 mmHg 79%
    08:00 +23°C° 0 mm 1 m/S 693 mmHg 66%
    09:00 +26°C° 0 mm 2 m/S 693 mmHg 54%
    10:00 +29°C° 0 mm 2 m/S 694 mmHg 41%
    11:00 +31°C° 0 mm 2 m/S 694 mmHg 36%
    12:00 +34°C° 0 mm 2 m/S 694 mmHg 31%
    13:00 +36°C° 0 mm 2 m/S 693 mmHg 26%
    14:00 +35°C° 0 mm 2 m/S 693 mmHg 26%
    15:00 +35°C° 0 mm 2 m/S 692 mmHg 26%
    16:00 +35°C° 0 mm 2 m/S 691 mmHg 27%
    17:00 +31°C° 0 mm 2 m/S 691 mmHg 32%
    18:00 +29°C° 0 mm 2 m/S 691 mmHg 38%
    19:00 +26°C° 0 mm 2 m/S 691 mmHg 44%
    20:00 +25°C° 0 mm 2 m/S 691 mmHg 51%
    21:00 +23°C° 0 mm 2 m/S 692 mmHg 59%
    22:00 +21°C° 0 mm 2 m/S 692 mmHg 66%
    23:00 +20°C° 0 mm 2 m/S 692 mmHg 72%

    Morgen, 28 Juni, Mittwoch

    Zeit Temperatur Niederschläge Wind Luftdruck Luftfeuchtigkeit
    00:00 +20°C° 0 mm 1 m/S 692 mmHg 79%
    01:00 +19°C° 0 mm 1 m/S 692 mmHg 85%
    02:00 +18°C° 0 mm 1 m/S 692 mmHg 87%
    03:00 +18°C° 0 mm 1 m/S 691 mmHg 88%
    04:00 +16°C° 0 mm 1 m/S 691 mmHg 90%
    05:00 +18°C° 0 mm 1 m/S 691 mmHg 87%
    06:00 +19°C° 0 mm 1 m/S 692 mmHg 83%
    07:00 +19°C° 0 mm 1 m/S 692 mmHg 80%
    08:00 +23°C° 0 mm 1 m/S 693 mmHg 66%
    09:00 +27°C° 0 mm 1 m/S 694 mmHg 51%
    10:00 +30°C° 0 mm 2 m/S 694 mmHg 37%
    11:00 +32°C° 0 mm 2 m/S 694 mmHg 31%
    12:00 +35°C° 0 mm 2 m/S 693 mmHg 26%
    13:00 +36°C° 0 mm 2 m/S 693 mmHg 21%
    14:00 +36°C° 0 mm 2 m/S 692 mmHg 21%
    15:00 +36°C° 0 mm 2 m/S 692 mmHg 21%
    16:00 +35°C° 0 mm 2 m/S 691 mmHg 21%
    17:00 +31°C° 0 mm 2 m/S 691 mmHg 27%
    18:00 +28°C° 0 mm 2 m/S 690 mmHg 33%
    19:00 +25°C° 0 mm 2 m/S 690 mmHg 39%
    20:00 +23°C° 0 mm 2 m/S 691 mmHg 47%
    21:00 +22°C° 0 mm 1 m/S 691 mmHg 54%
    22:00 +21°C° 0 mm 1 m/S 692 mmHg 61%
    23:00 +20°C° 0 mm 1 m/S 691 mmHg 69%

    übermorgen, 29 Juni, Donnerstag

    Zeit Temperatur Niederschläge Wind Luftdruck Luftfeuchtigkeit
    00:00 +19°C° 0 mm 1 m/S 691 mmHg 77%
    01:00 +18°C° 0 mm 1 m/S 691 mmHg 85%
    02:00 +16°C° 0 mm 1 m/S 691 mmHg 87%
    03:00 +16°C° 0 mm 1 m/S 690 mmHg 89%
    04:00 +16°C° 0 mm 1 m/S 690 mmHg 91%
    05:00 +16°C° 0 mm 1 m/S 691 mmHg 88%
    06:00 +18°C° 0 mm 1 m/S 691 mmHg 85%
    07:00 +19°C° 0 mm 1 m/S 692 mmHg 81%
    08:00 +23°C° 0 mm 1 m/S 693 mmHg 65%
    09:00 +27°C° 0 mm 1 m/S 694 mmHg 48%
    10:00 +30°C° 0 mm 2 m/S 695 mmHg 32%
    11:00 +32°C° 0 mm 2 m/S 694 mmHg 27%
    12:00 +35°C° 0 mm 2 m/S 694 mmHg 22%
    13:00 +36°C° 0 mm 2 m/S 693 mmHg 17%
    14:00 +36°C° 0 mm 2 m/S 692 mmHg 17%
    15:00 +35°C° 0 mm 2 m/S 692 mmHg 17%
    16:00 +34°C° 0 mm 1 m/S 691 mmHg 18%
    17:00 +31°C° 0 mm 2 m/S 691 mmHg 23%
    18:00 +27°C° 0 mm 2 m/S 691 mmHg 29%
    19:00 +24°C° 0 mm 2 m/S 691 mmHg 34%
    20:00 +23°C° 0 mm 2 m/S 691 mmHg 42%
    21:00 +21°C° 0 mm 2 m/S 692 mmHg 49%
    22:00 +21°C° 0 mm 1 m/S 692 mmHg 57%
    23:00 +20°C° 0 mm 1 m/S 692 mmHg 66%

    30 Juni, Freitag

    Zeit Temperatur Niederschläge Wind Luftdruck Luftfeuchtigkeit
    00:00 +19°C° 0 mm 1 m/S 692 mmHg 76%
    01:00 +18°C° 0 mm 1 m/S 692 mmHg 85%
    02:00 +18°C° 0 mm 1 m/S 691 mmHg 88%
    03:00 +18°C° 0 mm 1 m/S 691 mmHg 90%
    04:00 +18°C° 0 mm 1 m/S 691 mmHg 92%
    05:00 +18°C° 0 mm 1 m/S 692 mmHg 92%
    06:00 +18°C° 0 mm 1 m/S 692 mmHg 91%
    07:00 +18°C° 0 mm 1 m/S 693 mmHg 90%
    08:00 +22°C° 0 mm 1 m/S 693 mmHg 73%
    09:00 +26°C° 0 mm 1 m/S 694 mmHg 56%
    10:00 +30°C° 0 mm 1 m/S 695 mmHg 38%
    11:00 +32°C° 0 mm 1 m/S 694 mmHg 32%
    12:00 +33°C° 0 mm 1 m/S 694 mmHg 26%
    13:00 +35°C° 0 mm 1 m/S 693 mmHg 20%
    14:00 +35°C° 0 mm 1 m/S 693 mmHg 19%
    15:00 +34°C° 0 mm 1 m/S 692 mmHg 19%
    16:00 +34°C° 0 mm 1 m/S 691 mmHg 19%
    17:00 +30°C° 0 mm 1 m/S 691 mmHg 27%
    18:00 +27°C° 0 mm 1 m/S 691 mmHg 34%
    19:00 +23°C° 0 mm 1 m/S 691 mmHg 42%
    20:00 +22°C° 0 mm 1 m/S 691 mmHg 48%
    21:00 +21°C° 0 mm 1 m/S 692 mmHg 54%
    22:00 +20°C° 0 mm 2 m/S 692 mmHg 61%
    23:00 +20°C° 0 mm 1 m/S 692 mmHg 69%

    1 Juli, Samstag

    Zeit Temperatur Niederschläge Wind Luftdruck Luftfeuchtigkeit
    00:00 +19°C° 0 mm 1 m/S 692 mmHg 77%
    01:00 +18°C° 0 mm 1 m/S 691 mmHg 86%
    02:00 +18°C° 0 mm 1 m/S 691 mmHg 89%
    03:00 +16°C° 0 mm 1 m/S 691 mmHg 91%
    04:00 +16°C° 0 mm 1 m/S 691 mmHg 94%
    05:00 +18°C° 0 mm 1 m/S 691 mmHg 91%
    06:00 +18°C° 0 mm 1 m/S 692 mmHg 89%
    07:00 +19°C° 0 mm 1 m/S 692 mmHg 86%
    08:00 +22°C° 0 mm 1 m/S 693 mmHg 69%
    09:00 +26°C° 0 mm 2 m/S 694 mmHg 52%
    10:00 +30°C° 0 mm 2 m/S 694 mmHg 35%
    11:00 +32°C° 0 mm 2 m/S 694 mmHg 29%
    12:00 +35°C° 0 mm 2 m/S 693 mmHg 24%
    13:00 +36°C° 0 mm 2 m/S 692 mmHg 19%
    14:00 +35°C° 0 mm 1 m/S 692 mmHg 19%
    15:00 +35°C° 0 mm 1 m/S 691 mmHg 19%
    16:00 +34°C° 0 mm 1 m/S 691 mmHg 19%
    17:00 +31°C° 0 mm 1 m/S 691 mmHg 27%
    18:00 +27°C° 0 mm 1 m/S 691 mmHg 34%
    19:00 +23°C° 0 mm 1 m/S 691 mmHg 42%
    20:00 +23°C° 0 mm 1 m/S 691 mmHg 48%
    21:00 +21°C° 0 mm 2 m/S 691 mmHg 53%
    22:00 +20°C° 0 mm 2 m/S 692 mmHg 59%
    23:00 +20°C° 0 mm 1 m/S 691 mmHg 67%

    2 Juli, Sonntag

    Zeit Temperatur Niederschläge Wind Luftdruck Luftfeuchtigkeit
    00:00 +19°C° 0 mm 1 m/S 691 mmHg 75%
    01:00 +18°C° 0 mm 1 m/S 691 mmHg 83%
    02:00 +18°C° 0 mm 1 m/S 691 mmHg 86%
    03:00 +16°C° 0 mm 1 m/S 691 mmHg 89%
    04:00 +15°C° 0 mm 1 m/S 690 mmHg 92%
    05:00 +16°C° 0 mm 1 m/S 691 mmHg 88%
    06:00 +18°C° 0 mm 1 m/S 692 mmHg 85%
    07:00 +19°C° 0 mm 1 m/S 692 mmHg 82%
    08:00 +23°C° 0 mm 1 m/S 693 mmHg 65%
    09:00 +27°C° 0 mm 1 m/S 694 mmHg 48%
    10:00 +30°C° 0 mm 2 m/S 694 mmHg 32%
    11:00 +32°C° 0 mm 2 m/S 694 mmHg 27%
    12:00 +35°C° 0 mm 2 m/S 693 mmHg 22%
    13:00 +37°C° 0 mm 2 m/S 693 mmHg 17%
    14:00 +36°C° 0 mm 2 m/S 692 mmHg 17%
    15:00 +35°C° 0 mm 1 m/S 691 mmHg 17%
    16:00 +34°C° 0 mm 1 m/S 691 mmHg 17%
    17:00 +31°C° 0 mm 1 m/S 691 mmHg 25%
    18:00 +27°C° 0 mm 1 m/S 690 mmHg 33%
    19:00 +24°C° 0 mm 2 m/S 690 mmHg 41%
    20:00 +22°C° 0 mm 1 m/S 691 mmHg 45%
    21:00 +21°C° 0 mm 1 m/S 691 mmHg 50%
    22:00 +20°C° 0 mm 1 m/S 691 mmHg 54%
    23:00 +19°C° 0 mm 1 m/S 691 mmHg 62%
    Mehr zeigen